Temp
52 52 52 52 51 50 44 37 30 44 43 30 21 24 33 38 36 39 36 35 33 30 31 29 29 29 33 41 38 30 35 29 23 29 40 42 36 29 29 23 25 29 24 25
51 51 51 51 51 50 39 33 36 42 41 24 24 32 33 36 35 35 35 33 35 35 30 24 30 32 39 39 37 31 33 27 19 26 34 38 29 31 31 31 31 27 25 25
51 51 51 51 51 48 39 31 27 35 33 33 32 31 31 31 37 35 36 35 36 33 30 33 28 31 37 39 38 42 39 27 23 18 24 30 25 31 31 29 26 27 25 26
51 51 51 51 50 48 38 29 27 34 26 29 31 32 33 30 29 36 36 33 33 29 23 27 28 34 33 37 40 39 36 23 28 30 33 33 29 29 29 26 27 24 24 25
51 51 50 50 50 47 35 29 30 32 31 33 31 29 28 30 31 31 31 31 33 31 24 27 24 29 31 31 36 34 36 26 29 27 35 33 31 31 32 29 29 27 28 26
50 50 50 49 49 46 35 33 35 32 27 30 29 29 31 31 33 35 36 34 31 27 33 37 37 37 36 35 31 30 31 29 27 23 33 32 25 27 29 29 30 29 24 28
50 50 49 49 49 45 38 35 33 28 25 29 31 32 33 32 33 31 35 36 32 38 41 40 39 35 34 34 34 35 28 28 28 24 29 16 28 37 34 30 30 32 31 32
50 49 49 49 48 46 39 36 33 28 25 32 31 32 32 33 34 33 34 37 40 39 37 33 31 31 34 35 37 36 34 30 25 21 23 29 31 32 29 28 26 34 33 36
49 49 49 49 49 48 39 37 36 31 28 29 36 31 33 30 30 31 34 40 40 38 32 28 22 21 26 27 31 37 34 32 27 23 19 17 29 36 39 35 24 36 37 35
48 49 49 49 49 48 41 38 38 33 27 34 36 32 32 34 31 29 31 35 35 36 27 24 22 24 28 23 23 26 29 28 21 19 20 26 35 38 42 24 25 38 38 36
48 48 48 48 48 47 41 37 38 37 30 34 36 38 35 33 32 30 33 31 32 29 22 23 22 23 26 24 27 28 25 23 22 23 20 18 38 38 30 34 39 40 38 37
47 47 48 48 48 47 43 37 39 40 34 35 39 41 43 42 40 36 33 33 29 29 24 22 28 26 25 23 24 33 27 30 27 27 28 35 39 37 41 42 40 38 38 38
47 47 47 48 47 46 42 36 37 36 32 34 36 36 42 42 43 45 35 35 36 32 35 30 29 24 29 25 27 27 35 36 31 29 36 36 39 42 43 43 41 40 39 38
47 47 47 47 47 46 42 37 36 36 34 28 35 43 41 45 42 42 43 40 38 36 36 32 27 27 33 31 32 31 37 36 34 34 38 39 41 42 43 42 41 40 40 38
46 46 47 47 46 44 38 37 37 39 35 28 32 38 42 43 41 40 42 40 38 36 32 31 30 33 32 34 32 31 37 37 34 33 39 38 41 42 42 41 40 40 38 38
46 46 46 46 45 42 38 32 38 40 40 33 29 37 39 42 40 40 38 39 38 38 35 34 35 36 35 30 29 39 39 40 41 40 41 41 42 42 43 41 40 40 39 38
46 46 46 45 44 37 35 33 39 42 41 32 29 30 38 41 41 38 37 38 37 38 36 34 35 35 36 32 29 40 41 42 42 42 41 40 42 41 42 42 41 40 39 39
45 45 46 46 45 41 37 38 44 41 36 35 27 29 34 41 35 35 36 34 34 35 36 34 33 35 33 28 37 39 41 42 42 42 43 42 41 41 41 41 39 39 38 38
45 46 45 39 36 33 37 45 43 40 36 28 28 26 26 37 34 33 33 34 31 35 32 33 33 32 27 35 38 39 40 41 42 42 42 41 40 41 40 40 39 37 38 38
45 39 35 28 35 44 45 38 34 35 35 32 29 31 28 35 31 31 32 30 31 28 33 34 29 31 38 40 40 40 40 42 42 39 39 40 39 39 39 39 39 38 37 37
35 32 31 37 45 40 33 26 27 30 28 30 30 30 30 35 33 32 31 28 29 25 30 29 29 27 34 37 36 39 40 42 42 42 41 40 39 38 38 38 37 37 37 36
36 35 39 40 34 29 28 23 29 27 26 30 29 31 33 34 34 33 30 30 29 24 31 26 24 32 37 36 37 39 39 40 40 40 39 38 38 37 37 36 36 36 35 31
37 34 31 31 26 23 20 14 25 24 29 31 31 30 33 32 33 30 30 26 24 32 24 24 29 34 37 37 38 37 39 39 39 38 38 38 37 37 36 34 33 31 31 29
31 26 14 21 16 22 25 28 28 32 31 31 32 30 31 30 29 27 25 29 29 22 18 24 31 36 37 37 37 37 36 36 38 38 38 36 34 32 29 26 26 25 27 26
28 29 14 20 28 28 29 30 31 32 33 33 31 31 32 28 26 28 28 24 20 23 24 29 35 38 38 37 37 37 36 32 33 36 35 29 27 29 28 28 30 30 25 25
29 29 25 27 25 23 24 28 29 34 31 32 33 29 26 27 28 25 23 24 21 26 31 34 35 37 38 38 37 36 36 36 36 36 35 34 29 28 32 31 30 26 27 25
27 26 29 27 28 27 27 30 32 34 33 29 29 24 25 28 24 22 28 24 28 31 34 35 36 37 39 37 36 33 34 36 36 35 35 35 34 33 32 30 31 31 31 27
MSLP
1011.09 1011.61 1012.12 1013.29 1013.73 1014.51 1015.15 1016.97 1018.70 1018.79 1018.41 1019.73 1021.85 1022.60 1022.30 1022.30 1022.27 1022.26 1022.37 1022.58 1022.78 1022.72 1022.57 1021.79 1021.68 1021.29 1020.79 1019.98 1019.85 1019.04 1018.75 1018.04 1016.12 1014.16 1012.71 1012.54 1012.72 1011.77 1010.58 1008.96 1006.45 1005.76 1006.25 1007.89
1011.26 1011.76 1012.40 1013.04 1013.68 1014.10 1015.39 1018.12 1019.46 1019.19 1018.94 1020.91 1022.09 1022.29 1022.16 1022.22 1022.47 1022.44 1022.38 1022.45 1022.55 1022.60 1022.66 1022.34 1021.65 1021.08 1020.24 1019.93 1019.71 1019.29 1019.07 1018.44 1016.76 1013.79 1012.73 1012.56 1012.67 1011.99 1010.57 1008.06 1006.50 1006.13 1006.46 1009.01
1011.29 1011.76 1012.36 1013.00 1013.91 1014.37 1015.47 1018.55 1020.00 1020.45 1020.53 1021.24 1021.50 1022.06 1022.52 1022.44 1022.40 1022.39 1022.49 1022.53 1022.60 1022.62 1022.52 1022.35 1021.79 1021.12 1020.13 1019.74 1019.34 1019.00 1019.02 1018.86 1018.35 1017.22 1015.95 1015.25 1013.95 1012.61 1011.21 1009.47 1007.86 1007.75 1008.62 1010.11
1011.15 1012.03 1012.62 1013.23 1013.91 1014.58 1015.83 1018.60 1020.16 1020.36 1021.59 1021.86 1021.88 1022.30 1022.59 1022.64 1022.36 1022.38 1022.67 1022.71 1022.67 1023.00 1022.81 1022.30 1021.78 1021.18 1020.56 1019.50 1019.17 1019.17 1019.30 1018.82 1017.97 1016.82 1015.90 1015.54 1015.04 1013.76 1012.80 1011.45 1010.77 1010.28 1011.43 1011.56
1011.51 1012.11 1012.69 1013.53 1014.27 1014.71 1016.30 1018.59 1019.59 1020.51 1021.33 1021.93 1022.15 1022.53 1022.74 1022.48 1022.48 1022.40 1022.64 1022.47 1022.54 1022.75 1022.89 1022.52 1021.98 1021.78 1021.18 1020.46 1019.56 1019.36 1019.23 1018.72 1017.88 1016.45 1015.58 1015.11 1014.67 1014.69 1014.19 1013.52 1013.11 1012.99 1012.89 1013.44
1011.81 1012.58 1013.22 1013.72 1014.07 1014.65 1016.89 1018.31 1018.55 1019.00 1022.04 1022.05 1021.94 1022.17 1022.16 1022.30 1022.38 1022.43 1022.37 1022.40 1022.42 1022.25 1021.99 1021.85 1021.51 1021.40 1021.23 1021.08 1021.15 1020.24 1019.43 1018.99 1018.04 1016.54 1015.44 1014.80 1015.25 1015.71 1015.72 1015.61 1015.26 1015.05 1014.59 1015.74
1012.31 1012.86 1013.47 1014.00 1014.14 1014.35 1015.57 1017.01 1017.89 1019.88 1022.44 1022.07 1021.71 1021.82 1021.80 1022.28 1022.38 1022.48 1022.23 1022.29 1022.30 1021.74 1021.46 1020.89 1020.58 1020.66 1020.59 1020.68 1020.51 1020.45 1019.85 1018.99 1018.31 1017.20 1015.74 1015.90 1016.89 1016.79 1016.55 1016.83 1017.09 1016.80 1016.82 1016.75
1012.78 1013.29 1013.65 1013.88 1014.21 1014.46 1015.19 1016.77 1017.79 1019.52 1021.35 1020.96 1021.44 1021.68 1021.88 1022.31 1022.50 1022.63 1022.49 1022.24 1022.00 1021.72 1021.42 1021.04 1020.93 1020.62 1020.17 1020.02 1020.02 1019.81 1019.96 1019.69 1019.08 1018.39 1017.19 1016.80 1016.72 1016.95 1017.24 1017.30 1018.02 1017.94 1017.51 1017.13
1012.99 1013.39 1013.71 1013.91 1014.16 1014.54 1015.35 1017.05 1017.55 1018.65 1020.66 1021.19 1020.66 1021.25 1021.79 1022.40 1022.60 1022.71 1022.56 1022.19 1022.00 1021.85 1021.94 1021.99 1022.20 1021.93 1021.61 1020.63 1019.92 1019.67 1019.83 1019.89 1019.68 1019.27 1018.62 1017.96 1017.96 1017.26 1016.97 1016.96 1017.69 1018.18 1018.11 1017.72
1013.43 1013.67 1013.98 1014.34 1014.74 1015.19 1015.98 1017.67 1017.86 1018.53 1020.13 1021.12 1020.68 1020.65 1021.47 1022.24 1022.63 1023.12 1023.03 1022.63 1022.37 1022.46 1022.89 1023.31 1023.44 1022.92 1022.54 1021.87 1021.16 1020.27 1019.86 1020.15 1020.33 1020.12 1019.68 1019.00 1018.19 1017.45 1016.62 1017.27 1018.95 1018.51 1018.34 1017.91
1013.72 1014.14 1014.50 1014.85 1015.33 1015.77 1016.25 1018.20 1018.13 1018.27 1020.14 1021.49 1021.23 1020.67 1021.20 1021.90 1022.51 1022.96 1023.12 1023.23 1023.22 1023.54 1024.18 1024.51 1024.38 1023.83 1023.41 1022.79 1021.79 1021.14 1020.92 1020.86 1020.85 1020.48 1019.91 1019.25 1018.62 1017.70 1017.85 1018.85 1018.53 1018.54 1018.59 1018.77
1014.37 1014.87 1015.24 1015.51 1015.87 1016.07 1016.50 1017.88 1017.75 1017.73 1019.01 1021.02 1021.30 1020.92 1020.87 1020.85 1021.59 1022.28 1022.92 1023.24 1023.53 1024.21 1024.72 1025.11 1024.39 1024.05 1023.72 1023.16 1021.87 1021.17 1020.81 1020.70 1020.80 1020.76 1019.90 1019.21 1018.86 1018.66 1018.49 1018.32 1018.46 1018.77 1019.04 1019.33
1015.10 1015.58 1015.83 1016.12 1016.49 1016.75 1016.84 1018.16 1018.46 1018.62 1019.93 1021.15 1021.09 1021.09 1020.99 1020.95 1021.39 1021.71 1022.29 1023.09 1023.38 1023.95 1024.25 1024.51 1024.47 1024.13 1023.66 1022.69 1021.70 1021.10 1020.26 1020.22 1020.14 1020.07 1019.04 1018.71 1018.46 1018.42 1018.36 1018.35 1018.45 1018.71 1019.00 1019.27
1015.81 1016.01 1016.30 1016.72 1016.85 1016.71 1017.24 1018.30 1018.86 1019.00 1019.99 1020.45 1021.05 1020.79 1020.83 1020.73 1021.21 1021.65 1021.92 1022.47 1023.23 1023.64 1024.06 1024.15 1024.25 1023.85 1023.17 1022.16 1021.51 1020.88 1019.93 1019.85 1019.28 1019.00 1018.40 1018.10 1017.82 1017.82 1017.76 1018.11 1018.50 1018.80 1019.04 1019.25
1016.29 1016.46 1016.84 1016.87 1017.20 1017.39 1017.69 1018.62 1019.30 1018.82 1019.52 1020.17 1020.80 1020.84 1020.81 1020.71 1021.09 1021.60 1022.03 1022.48 1022.98 1023.42 1023.82 1023.80 1023.44 1023.12 1022.79 1021.91 1021.42 1020.01 1019.19 1018.67 1018.69 1018.24 1018.20 1018.27 1017.75 1017.67 1017.72 1017.88 1018.22 1018.56 1018.79 1018.96
1016.82 1017.16 1017.04 1017.08 1017.43 1017.98 1018.22 1019.02 1019.75 1018.90 1019.10 1019.43 1020.84 1021.29 1020.86 1020.78 1021.23 1021.61 1022.09 1022.46 1022.88 1023.12 1023.09 1022.93 1022.65 1022.34 1022.20 1021.36 1020.17 1018.51 1018.20 1018.06 1018.04 1017.93 1018.03 1018.01 1017.80 1017.85 1017.91 1018.07 1018.35 1018.58 1018.76 1018.92
1017.22 1017.34 1017.31 1017.13 1017.74 1018.26 1018.43 1019.02 1019.09 1018.95 1018.99 1019.64 1021.24 1021.23 1020.90 1020.84 1021.13 1021.78 1022.17 1022.43 1022.55 1022.67 1022.61 1022.29 1021.98 1021.73 1021.70 1020.76 1019.22 1017.63 1017.59 1017.58 1017.67 1017.77 1017.92 1017.78 1017.71 1017.70 1017.96 1018.14 1018.38 1018.58 1018.79 1018.92
1017.46 1017.11 1017.35 1017.60 1018.03 1018.17 1018.46 1019.41 1018.97 1019.34 1019.56 1020.34 1021.43 1021.39 1021.19 1020.92 1021.24 1021.77 1022.15 1022.27 1022.51 1022.37 1021.99 1022.05 1021.62 1021.50 1021.15 1019.66 1017.63 1017.32 1017.28 1017.32 1017.42 1017.52 1017.68 1017.77 1017.91 1017.95 1018.11 1018.33 1018.51 1018.58 1018.65 1018.73
1017.29 1017.06 1017.64 1018.37 1018.39 1018.65 1019.25 1019.06 1019.32 1019.52 1020.08 1021.11 1021.67 1021.51 1021.35 1021.08 1021.39 1021.75 1022.17 1022.12 1022.21 1022.20 1021.74 1021.37 1021.21 1020.43 1019.54 1017.59 1017.07 1016.93 1016.87 1016.94 1016.98 1017.29 1017.55 1017.83 1017.97 1018.07 1018.22 1018.38 1018.47 1018.62 1018.65 1018.76
1017.30 1017.87 1018.15 1019.00 1019.12 1018.90 1018.99 1019.47 1019.72 1019.88 1020.59 1021.36 1021.45 1021.62 1021.38 1021.24 1021.51 1021.68 1022.08 1022.14 1021.81 1021.63 1021.14 1021.05 1020.52 1018.84 1017.45 1016.88 1016.73 1016.79 1016.76 1016.93 1017.15 1017.35 1017.61 1017.79 1017.91 1018.10 1018.23 1018.34 1018.51 1018.68 1018.78 1018.87
1017.87 1018.16 1018.79 1019.18 1018.80 1019.06 1019.67 1020.28 1020.53 1020.90 1021.17 1021.27 1021.20 1021.35 1021.14 1021.27 1021.25 1021.39 1021.81 1021.67 1021.66 1021.43 1020.97 1020.78 1019.58 1018.30 1017.15 1016.80 1016.81 1016.89 1017.04 1017.12 1017.29 1017.49 1017.80 1018.07 1018.31 1018.50 1018.57 1018.62 1018.78 1018.90 1018.95 1018.93
1017.63 1017.73 1018.52 1018.93 1019.37 1020.02 1020.25 1020.72 1021.00 1020.94 1020.65 1020.66 1020.81 1020.92 1021.12 1021.21 1021.28 1021.29 1021.79 1021.43 1021.57 1021.10 1020.98 1020.62 1019.19 1017.47 1016.95 1016.94 1017.03 1017.13 1017.26 1017.43 1017.66 1017.90 1018.17 1018.50 1018.76 1018.93 1019.03 1019.12 1019.21 1019.32 1019.37 1019.34
1017.75 1018.08 1019.02 1019.28 1020.37 1020.48 1020.66 1020.68 1020.39 1020.30 1019.98 1020.03 1020.33 1020.71 1020.77 1021.33 1021.34 1021.40 1021.38 1021.34 1021.26 1021.02 1020.81 1019.72 1018.09 1017.10 1016.89 1016.98 1017.16 1017.39 1017.59 1017.75 1017.95 1018.21 1018.46 1018.70 1018.88 1019.12 1019.37 1019.59 1019.80 1019.81 1019.77 1019.68
1018.27 1018.71 1019.65 1019.69 1020.21 1019.99 1019.56 1019.38 1019.25 1019.09 1019.14 1019.42 1019.76 1020.16 1020.44 1020.89 1021.11 1021.25 1021.25 1021.07 1021.10 1020.80 1020.32 1018.72 1017.31 1016.65 1016.58 1016.88 1017.17 1017.45 1017.60 1017.83 1017.98 1018.15 1018.47 1018.77 1019.09 1019.38 1019.70 1020.05 1020.21 1020.11 1020.02 1019.97
1018.65 1018.85 1019.41 1019.52 1019.22 1019.24 1019.23 1019.24 1019.16 1019.04 1019.00 1019.21 1019.69 1020.03 1020.30 1020.64 1020.75 1020.80 1020.92 1021.03 1020.66 1019.88 1018.60 1017.62 1016.62 1016.36 1016.43 1016.68 1016.92 1017.09 1017.35 1017.74 1017.95 1018.03 1018.30 1018.69 1019.10 1019.48 1019.73 1020.02 1020.02 1020.06 1020.15 1020.05
1018.92 1018.84 1018.92 1019.05 1019.31 1019.35 1019.28 1019.16 1019.03 1018.88 1018.97 1019.16 1019.22 1019.74 1020.08 1020.08 1020.11 1020.51 1020.23 1020.13 1019.24 1018.08 1017.44 1016.59 1016.43 1016.23 1016.23 1016.34 1016.46 1016.67 1016.95 1017.16 1017.34 1017.76 1018.18 1018.59 1018.98 1019.22 1019.45 1019.67 1019.81 1019.98 1019.98 1019.94
1018.85 1018.61 1018.44 1018.61 1018.83 1018.78 1018.60 1018.44 1018.40 1018.44 1018.70 1018.79 1018.84 1019.13 1019.21 1019.62 1019.65 1019.59 1019.11 1018.40 1017.34 1016.76 1016.49 1016.23 1016.12 1015.96 1015.84 1015.97 1016.18 1016.33 1016.53 1016.77 1017.10 1017.47 1017.79 1018.10 1018.54 1018.95 1019.20 1019.34 1019.51 1019.66 1019.72 1019.75
Wind_Speed
23 23 22 20 20 15 9 4 5 3 3 6 2 3 6 3 1 2 1 2 4 3 4 7 5 5 6 10 11 14 3 5 10 21 15 5 13 9 11 5 6 2 2 7
22 21 21 19 20 10 5 4 2 2 3 5 2 3 4 3 2 1 2 1 1 1 2 5 3 5 5 12 12 4 5 4 10 14 5 5 8 20 19 16 9 4 1 7
21 19 17 19 18 10 7 5 4 4 5 2 6 6 3 3 2 2 1 1 1 4 3 3 5 8 9 14 11 13 4 3 5 6 13 15 14 23 25 18 6 12 13 14
19 17 17 18 14 9 7 3 2 1 3 2 5 3 4 4 3 2 1 1 1 3 4 5 2 9 15 7 6 5 6 5 5 13 17 11 11 24 28 25 21 15 18 19
19 18 17 16 14 10 6 5 6 3 4 7 7 3 2 4 3 2 1 2 6 2 4 6 8 10 4 5 7 9 4 4 7 6 7 5 20 24 22 27 22 19 18 16
18 16 16 16 13 7 4 2 2 7 1 4 5 4 4 4 1 2 4 3 5 2 5 6 13 13 13 15 9 6 6 5 6 6 18 5 8 20 16 18 22 15 18 10
18 16 14 12 12 6 4 2 5 6 3 2 4 7 4 3 2 1 3 3 2 2 10 11 4 4 8 7 7 10 5 8 3 6 10 7 3 16 8 19 19 19 16 10
18 16 15 14 12 9 5 3 4 5 5 5 6 8 6 2 0 1 3 3 2 7 4 4 4 4 3 2 3 5 7 3 4 5 6 3 6 15 7 7 13 16 14 14
17 16 16 16 16 15 6 3 2 5 9 5 6 5 5 3 1 2 3 2 3 5 3 3 4 4 4 5 11 2 5 3 2 4 4 7 9 19 13 2 11 14 12 13
17 17 17 16 14 13 6 3 3 5 6 2 4 4 5 5 3 1 3 4 5 4 4 4 3 2 2 4 7 7 6 4 5 3 3 3 9 17 6 7 5 11 11 12
18 17 17 15 13 10 6 2 2 4 4 1 2 3 6 4 3 2 1 1 3 3 5 1 0 1 2 3 4 5 4 4 3 2 3 4 10 8 6 3 5 7 9 9
18 16 15 14 13 10 5 3 1 2 6 4 1 1 4 5 7 4 1 3 3 3 4 2 1 1 1 1 3 2 1 1 2 3 2 4 5 5 7 6 5 4 4 4
17 15 14 14 13 10 7 3 1 4 3 3 2 2 1 3 4 4 3 1 3 3 2 2 1 4 3 2 3 3 2 3 3 2 1 5 5 5 4 1 1 2 3 3
15 15 14 12 12 12 8 3 1 4 3 4 1 1 1 4 7 5 3 5 4 5 1 2 2 3 4 2 3 3 2 1 3 4 7 7 3 3 6 3 2 1 1 3
14 14 13 13 12 13 8 4 2 1 3 4 2 2 0 2 6 7 7 5 4 2 1 2 3 2 3 2 2 5 5 5 3 3 2 4 8 6 1 3 1 2 4 5
12 11 12 12 11 7 3 4 2 1 0 4 3 2 1 2 5 7 7 5 3 2 2 3 3 3 3 3 4 5 6 5 5 3 1 6 10 5 1 2 2 1 2 3
11 11 11 12 8 3 3 3 3 4 1 4 2 2 1 0 3 2 2 3 2 2 2 4 3 3 5 3 6 5 6 7 5 5 3 4 3 3 4 3 2 0 2 4
11 12 11 10 9 7 5 2 7 2 5 4 2 1 1 1 2 2 1 3 1 3 2 1 3 2 2 6 11 7 5 5 5 5 4 3 3 1 3 2 1 4 5 6
10 13 12 3 4 3 1 4 8 1 4 3 2 3 3 1 2 2 2 0 2 1 3 3 3 3 8 9 9 8 7 6 4 5 3 3 3 4 5 5 5 6 6 5
11 3 3 3 1 3 8 4 3 3 3 2 2 2 2 1 1 1 1 0 2 2 2 2 4 6 11 9 7 5 5 7 4 4 3 3 3 4 5 6 5 5 6 7
2 2 3 1 1 2 3 3 3 0 1 3 2 5 2 1 2 2 1 1 0 2 1 2 3 4 3 3 3 3 2 3 4 2 3 3 2 3 4 5 5 6 7 9
3 5 3 2 2 3 3 1 2 3 3 3 4 4 4 1 1 1 2 1 0 4 1 1 4 4 3 2 3 3 4 5 5 4 4 3 2 2 4 4 5 6 8 7
2 4 4 2 2 3 5 6 4 3 4 5 4 4 3 2 1 2 2 1 3 1 1 4 5 3 3 4 3 3 4 5 5 4 3 1 1 2 3 4 4 5 6 6
3 3 3 3 3 4 5 4 4 3 3 5 3 3 2 2 2 2 2 1 1 2 3 5 3 4 4 5 5 4 6 6 5 5 4 3 2 1 1 1 1 2 5 6
2 3 3 5 3 2 1 1 1 2 4 4 3 3 1 1 3 2 2 1 4 5 5 3 3 3 4 6 6 8 6 5 6 6 5 4 3 2 0 1 2 3 3 4
1 2 2 1 1 2 1 3 2 3 3 2 1 3 2 3 3 3 6 3 7 4 4 3 2 3 5 6 6 6 6 9 8 5 4 4 5 3 0 1 2 3 2 4
3 4 3 3 1 3 3 4 4 4 4 3 3 5 6 3 2 3 5 6 4 4 4 3 5 5 5 5 5 6 6 7 7 6 6 5 5 4 2 2 2 4 3 2
Wind_Direction
146 146 145 151 146 136 61 83 83 320 11 57 30 88 134 151 115 35 73 167 228 244 346 297 299 287 298 305 329 327 337 289 310 311 294 245 347 293 288 262 273 258 244 64
149 147 146 147 151 142 117 86 91 329 67 109 84 115 95 99 131 162 146 147 127 299 315 311 298 303 264 306 332 325 332 340 316 335 358 313 344 340 333 317 273 296 132 76
144 141 144 146 150 120 85 107 104 5 46 40 107 110 84 117 52 81 54 252 278 334 307 256 288 303 309 318 300 304 20 261 242 274 277 305 312 358 1 2 347 44 55 96
129 130 140 147 143 124 95 42 126 183 128 64 106 104 129 135 110 85 264 172 85 30 310 316 253 315 325 327 314 14 338 268 268 270 286 328 342 5 12 19 20 51 56 48
127 127 131 144 143 112 81 125 142 52 78 111 110 25 176 115 106 143 174 208 320 224 201 215 292 317 329 301 333 344 1 280 312 296 334 315 24 11 21 23 21 42 48 51
121 126 133 140 145 103 114 182 65 96 16 138 136 171 163 119 127 200 240 292 315 261 250 269 274 265 263 265 298 307 317 313 326 297 337 92 4 3 23 33 23 16 42 29
122 120 124 150 170 123 125 151 101 94 134 150 132 144 110 142 177 259 269 281 239 268 325 296 249 236 241 235 248 235 293 318 325 295 340 55 165 13 22 57 26 16 26 35
114 109 105 110 135 138 88 106 107 117 118 140 129 140 118 109 314 181 270 273 273 332 329 15 17 357 3 349 48 36 221 312 315 336 339 312 18 2 357 45 38 16 14 11
103 94 92 90 92 96 81 70 104 105 126 226 132 128 113 133 90 23 273 294 349 17 58 52 47 32 327 332 343 108 120 32 45 356 18 5 357 337 340 291 47 5 8 13
101 94 87 83 78 72 91 64 47 88 100 218 132 129 136 132 104 148 303 344 3 24 36 56 41 26 323 346 329 337 351 356 25 12 22 285 331 340 333 50 356 339 5 10
99 93 89 88 87 78 82 112 2 111 93 89 202 142 126 112 117 142 220 91 26 48 67 70 77 278 3 294 288 329 357 349 354 336 1 350 6 352 40 296 312 355 19 20
102 100 97 92 87 85 105 95 333 72 88 130 250 208 160 136 160 137 38 112 142 153 97 200 260 253 267 258 313 254 340 187 292 231 251 253 297 264 294 288 313 359 31 22
108 106 101 93 81 74 98 101 25 58 86 72 116 219 175 139 177 168 122 183 128 154 175 136 81 257 172 231 236 277 224 160 237 318 234 251 259 243 245 259 315 14 12 3
110 109 102 99 95 85 80 84 33 84 102 105 93 350 150 133 144 173 138 119 89 95 141 126 184 251 201 250 308 252 261 202 237 258 282 299 256 259 280 197 122 120 29 4
114 110 115 113 100 92 84 76 14 80 128 138 121 308 337 137 156 157 154 138 124 138 144 182 233 220 212 219 268 241 196 204 202 249 298 272 290 322 348 176 356 8 2 359
116 120 121 115 112 106 75 64 319 336 83 94 91 331 302 94 153 154 165 164 143 181 196 206 228 238 216 254 250 255 213 210 204 249 232 261 280 282 188 185 218 266 318 335
129 126 117 116 115 93 89 150 182 171 279 75 65 4 4 359 110 108 128 141 165 195 220 220 223 213 196 243 245 232 221 220 223 233 260 277 238 260 202 209 190 324 306 302
135 121 116 117 110 97 60 332 107 110 83 66 98 283 342 166 139 159 86 140 160 200 241 174 215 150 216 251 242 252 244 223 218 219 211 266 304 196 206 214 265 287 302 316
136 125 128 87 39 60 116 145 110 67 96 107 115 152 194 4 89 83 116 130 219 104 234 230 168 188 225 235 244 242 221 198 190 174 185 190 238 278 276 272 274 279 299 310
128 82 73 43 22 180 122 18 42 34 32 59 178 123 228 158 119 125 131 60 238 238 213 135 225 250 251 250 239 256 226 206 173 174 222 230 267 305 310 300 298 283 294 306
57 79 76 207 141 72 34 72 80 177 244 176 213 189 172 179 151 173 216 171 194 264 152 252 251 260 254 310 211 182 197 182 166 118 91 80 56 352 339 334 328 324 324 324
165 118 105 100 61 50 87 116 125 207 237 179 175 185 198 149 141 155 166 213 128 248 70 247 262 254 269 212 200 184 158 142 129 120 118 90 46 11 333 321 333 342 335 336
54 59 75 90 301 131 153 193 199 211 194 178 168 150 148 129 149 98 147 161 235 39 267 243 239 266 257 205 181 162 167 160 147 147 144 140 71 28 17 345 6 356 349 335
81 113 82 160 190 218 193 190 185 210 156 153 146 116 144 150 136 135 157 221 278 275 244 241 250 245 242 199 194 177 197 194 194 199 191 193 220 270 46 86 327 326 354 339
97 106 194 207 222 223 219 209 268 190 135 128 112 84 132 121 109 187 126 148 249 226 234 233 244 256 210 197 201 212 209 195 211 211 207 201 193 205 276 25 1 6 346 357
61 223 203 181 125 266 199 183 224 173 134 109 85 121 120 207 150 157 207 204 224 240 222 234 240 232 221 223 217 213 208 211 215 207 201 186 173 178 138 11 359 343 355 357
210 231 218 168 236 222 209 175 195 146 139 186 143 155 196 112 169 227 194 215 214 223 242 239 230 236 240 226 225 221 218 217 212 201 199 190 164 162 196 295 344 338 336 349